Theta_e
318 320 321 321 321 320 318 318 318 319 319 319 320 320 319 318 316 313 310 307 304 302 302 302 303 302 303 303 303 303 303 303 303 303 303 303 303 304 304 304 305 305
317 319 320 321 321 320 318 318 319 320 320 320 321 321 320 320 320 318 315 311 308 305 303 302 303 303 303 303 303 303 303 303 304 304 304 304 305 305 305 305 305 305
318 319 319 321 321 319 319 319 319 320 321 321 321 321 321 320 320 320 319 316 312 309 306 304 302 303 303 303 303 304 304 304 304 304 305 305 305 305 305 305 305 305
318 319 319 321 321 320 319 319 319 320 321 321 321 321 321 320 320 321 321 320 317 314 311 307 304 303 303 303 303 304 304 304 304 304 305 305 305 305 305 305 305 305
318 319 320 321 321 320 320 320 320 320 320 321 321 321 321 321 321 320 321 321 320 318 315 311 308 306 304 303 303 303 304 304 304 304 304 305 305 305 305 305 305 305
317 318 319 320 321 320 320 320 320 320 321 321 321 321 322 322 321 321 321 321 321 320 318 315 312 310 308 305 303 303 303 304 304 304 304 304 305 305 305 305 305 305
318 318 318 319 320 320 320 320 320 320 321 322 322 322 322 322 321 321 321 321 321 321 320 319 316 312 310 309 306 305 304 304 303 304 304 304 304 304 304 304 304 305
318 319 318 318 319 320 320 320 320 320 320 321 322 322 322 321 321 321 321 321 321 321 321 321 318 314 312 311 310 308 307 306 305 304 304 304 304 304 304 304 304 304
318 319 318 318 318 320 320 320 320 320 319 320 321 321 321 321 320 321 321 321 321 321 322 321 320 317 317 317 316 315 315 314 312 311 309 308 307 306 305 304 303 303
319 319 318 318 318 319 320 319 319 319 319 319 319 320 320 320 320 321 321 322 322 321 322 322 321 321 321 322 321 321 321 321 320 319 318 317 316 315 312 310 308 307
320 320 319 319 318 318 319 319 319 319 319 319 319 318 319 319 320 321 322 322 322 322 322 322 322 322 323 323 323 322 323 322 323 323 323 322 322 321 320 319 317 316
320 320 320 320 319 318 318 319 319 319 319 319 319 318 319 319 321 322 322 323 322 322 322 322 322 323 323 323 323 323 322 322 322 323 322 323 323 322 323 322 322 322
321 321 320 320 319 319 318 318 319 319 319 320 319 319 319 320 321 322 322 322 323 322 322 322 322 323 323 323 323 322 322 322 322 322 322 322 322 322 322 322 322 322
322 322 321 320 319 318 318 318 318 319 319 320 320 320 320 320 321 321 322 322 323 322 322 322 322 322 323 322 322 322 322 322 322 322 322 321 321 321 321 322 321 321
323 323 322 321 320 319 319 319 319 318 319 319 320 320 320 320 320 320 321 322 323 323 322 323 323 323 322 322 322 322 322 322 321 321 321 321 321 321 321 322 321 321
324 323 323 322 321 320 320 320 320 319 318 319 320 320 321 321 321 320 321 322 322 322 322 322 323 323 323 322 322 322 322 322 322 321 321 321 321 321 321 321 321 321
325 324 324 323 322 321 320 320 321 319 318 318 319 320 320 321 321 321 321 321 321 322 322 322 322 323 323 323 323 323 323 323 322 322 321 322 322 322 322 322 322 322
325 325 325 324 323 321 321 321 321 320 319 318 318 319 320 321 321 321 321 321 321 321 320 320 321 322 322 323 323 324 324 324 323 323 322 322 322 322 322 322 322 322
326 326 326 325 324 322 321 322 321 320 320 319 319 318 319 319 320 320 321 321 321 320 319 319 320 320 320 321 321 322 323 324 324 324 323 323 323 323 323 323 323 323
326 326 327 326 325 322 322 322 322 321 320 320 320 320 320 319 318 319 320 321 320 320 319 319 319 319 319 320 320 321 322 323 324 324 324 324 324 324 324 324 324 324
327 327 328 327 325 323 322 322 323 321 320 319 319 320 320 319 318 318 319 319 319 320 320 320 319 318 318 319 320 321 322 323 324 324 325 325 324 325 325 325 325 325
327 328 328 327 326 324 323 322 323 322 321 320 319 319 319 319 320 319 319 318 318 318 318 318 317 317 318 318 319 321 322 323 324 324 325 326 326 326 326 326 326 326
328 328 328 327 327 325 324 322 322 323 322 322 321 321 321 321 321 320 319 318 317 317 317 317 316 316 317 318 319 321 322 323 324 325 326 326 327 327 327 327 327 326
328 327 327 327 326 326 325 323 322 322 323 323 323 323 322 322 321 321 320 319 318 318 317 318 317 317 318 319 321 322 323 324 325 325 326 326 326 326 326 327 327 327
327 327 326 326 325 326 325 325 324 323 323 323 324 324 323 323 323 322 321 320 320 319 319 319 319 320 321 322 323 324 325 325 326 326 326 326 325 325 325 326 327 326
326 326 326 325 325 325 325 325 325 324 325 324 325 324 324 324 323 323 323 322 322 321 321 322 322 322 323 324 324 325 325 326 326 326 324 324 324 324 325 325 325 325
Wind_Speed
24 23 22 20 19 18 15 12 12 10 7 5 4 3 3 3 3 1 1 1 2 3 4 5 6 7 7 7 7 7 8 8 8 7 7 7 7 7 7 7 8 8
26 26 23 21 20 19 16 14 13 12 9 6 5 5 5 4 3 1 1 2 2 3 4 5 6 7 6 6 6 6 6 6 7 7 7 7 8 8 8 8 8 8
28 27 25 22 20 20 18 15 14 14 11 9 8 7 7 6 4 3 2 3 3 3 4 5 6 7 6 6 6 7 7 7 7 8 8 8 9 9 9 9 9 8
29 28 26 23 21 21 19 17 16 16 15 13 11 10 9 8 7 6 5 5 5 4 4 6 6 7 7 7 7 8 8 8 8 8 9 9 10 10 10 10 9 9
28 29 28 24 22 22 21 20 19 18 17 16 14 13 13 11 10 8 8 8 7 6 6 6 6 6 6 7 8 8 9 9 9 9 9 9 10 10 10 10 9 9
27 29 29 27 25 24 24 24 22 19 18 18 17 16 15 13 12 10 10 10 9 8 7 7 6 5 5 6 7 8 10 10 10 10 10 10 10 10 10 10 10 10
28 28 28 28 28 27 26 26 23 20 18 18 18 18 17 16 15 13 11 11 11 10 9 8 7 5 5 6 6 8 9 10 10 10 10 10 11 11 11 11 11 11
29 29 27 28 30 29 28 26 24 22 20 18 18 19 19 19 18 14 13 13 12 11 10 9 8 7 7 7 7 7 7 7 8 8 9 10 11 11 11 11 12 12
28 29 28 27 30 31 29 27 26 24 23 21 21 21 22 21 20 16 14 14 14 13 12 11 9 8 8 8 7 7 7 6 6 7 7 8 8 9 10 11 12 12
28 29 29 29 30 31 31 28 26 25 24 24 24 25 25 24 21 18 16 16 16 16 15 13 12 11 10 10 9 8 8 8 8 8 8 8 8 8 9 10 11 11
29 29 30 31 31 32 32 30 27 26 25 25 26 27 27 25 22 21 21 20 20 19 18 16 15 14 14 13 12 11 11 10 11 11 11 11 11 11 11 12 12 11
29 29 30 32 32 32 33 32 30 29 27 26 26 26 26 25 24 23 23 23 22 21 21 20 18 17 17 16 14 14 13 13 13 14 13 13 13 14 14 14 14 13
29 29 29 30 31 33 34 35 33 31 30 28 27 26 26 26 25 24 24 25 24 23 23 23 21 20 20 18 17 17 17 17 16 16 16 16 16 16 16 17 17 16
30 29 29 28 29 30 32 34 35 34 33 31 29 28 27 27 27 26 26 26 26 26 25 25 24 24 22 21 20 19 19 19 19 19 19 18 18 18 18 18 19 18
30 30 30 29 29 29 30 31 32 34 35 34 32 31 29 28 28 27 27 28 28 28 26 26 26 26 25 24 23 22 21 21 21 20 20 19 19 19 19 20 20 19
32 31 31 30 30 30 31 30 30 32 35 36 35 33 31 30 29 29 29 30 30 30 28 27 28 28 27 25 25 24 24 23 23 23 22 22 22 22 22 22 22 21
32 32 31 31 31 31 32 32 31 31 34 36 37 36 34 32 31 31 32 32 32 32 31 30 30 30 29 28 27 26 26 26 26 25 25 25 24 25 25 24 24 24
33 32 32 31 31 31 32 33 34 33 33 34 36 37 36 35 34 34 35 35 36 36 35 33 32 31 30 29 28 28 28 29 29 28 28 28 27 27 27 27 27 27
33 33 32 31 31 31 32 33 35 37 36 34 35 35 37 37 37 37 38 38 38 39 38 36 35 33 32 31 31 30 30 31 32 32 32 31 30 29 29 29 30 29
34 34 32 31 30 30 32 33 34 36 37 36 35 35 36 37 38 38 39 40 40 39 38 37 36 35 34 33 33 32 32 34 35 35 35 35 34 33 32 32 32 31
36 34 32 30 29 29 31 33 33 34 36 37 38 37 37 37 37 38 39 39 40 39 38 38 37 36 35 35 34 34 34 35 37 37 38 38 37 36 35 35 34 33
37 34 32 30 29 29 31 32 32 33 33 35 37 38 39 39 39 39 39 39 40 39 40 40 39 37 36 36 36 35 35 36 38 39 40 40 39 39 38 37 36 36
36 33 32 31 29 28 29 31 32 32 32 33 34 36 38 40 41 42 42 41 41 41 42 42 41 39 38 38 38 37 37 38 38 40 42 43 41 40 40 40 39 37
34 31 31 33 32 30 29 29 30 32 32 33 34 35 36 37 39 41 42 43 44 44 44 44 44 42 40 40 39 37 38 38 40 42 44 43 40 39 41 42 41 40
30 29 30 32 32 31 30 31 32 33 34 34 34 35 35 35 36 38 40 41 42 43 42 43 43 41 39 39 38 37 39 41 42 44 44 42 39 39 41 42 42 42
26 27 28 30 31 31 31 33 34 34 35 37 38 37 36 36 36 37 38 38 38 38 38 39 40 39 38 39 39 40 43 42 39 39 39 38 37 38 40 42 42 40
Wind_Direction
222 210 205 212 223 227 222 219 228 233 232 227 232 257 257 259 274 288 346 290 239 238 232 213 209 212 207 203 201 200 202 202 200 203 207 206 211 217 220 221 222 223
220 211 206 212 220 225 223 221 227 233 240 244 238 252 259 246 244 262 296 282 261 248 239 224 214 214 210 206 206 206 210 214 210 211 214 214 217 219 222 224 224 227
214 210 208 213 218 222 222 222 228 232 240 247 244 252 262 250 234 245 268 266 260 249 245 237 221 218 219 213 216 220 218 221 222 221 222 221 224 226 228 230 229 230
210 209 210 215 218 220 223 226 229 233 237 241 245 252 262 261 250 248 257 260 257 251 250 244 226 221 225 219 221 228 225 223 226 229 230 229 230 232 233 236 238 237
212 212 212 216 219 220 223 228 231 236 239 238 242 251 258 264 259 251 253 255 255 253 251 247 233 224 228 228 227 233 233 229 228 233 236 236 238 240 240 242 244 245
216 217 216 218 220 220 222 225 229 235 238 235 237 246 253 260 261 254 253 255 252 250 248 247 241 226 227 234 232 234 235 231 230 233 236 239 244 247 247 248 249 251
218 220 221 221 222 222 221 222 225 230 234 232 233 241 248 257 261 256 252 255 251 246 245 244 240 226 218 223 223 225 227 228 230 234 237 241 246 250 251 253 255 256
220 221 225 225 224 224 223 221 224 228 231 230 232 238 247 256 261 257 253 253 251 245 243 241 237 227 220 219 217 218 219 222 227 232 237 240 244 249 252 255 257 258
224 223 225 227 225 224 223 222 224 228 231 234 236 240 247 254 257 255 253 254 254 250 245 241 235 227 224 224 221 222 225 227 230 232 234 238 243 248 249 252 257 258
228 227 226 227 226 223 223 224 224 226 230 235 239 242 248 252 251 251 255 257 258 255 249 245 239 231 233 236 235 236 238 240 244 244 244 246 250 251 252 254 257 258
229 230 228 229 228 224 222 224 225 226 229 236 240 242 246 248 245 249 257 260 260 258 253 249 243 237 240 245 245 245 244 245 248 249 251 254 256 258 261 262 265 267
229 230 230 230 232 228 223 223 226 227 230 234 237 240 243 243 242 249 256 258 259 259 256 252 248 243 242 244 246 247 248 248 249 252 255 258 261 264 266 268 270 273
228 229 230 231 233 231 227 225 226 227 228 230 234 238 241 239 240 246 253 255 259 262 260 255 252 249 244 243 245 247 251 252 253 256 259 263 267 269 270 272 273 275
232 232 232 232 232 230 227 225 226 227 227 229 232 236 239 239 240 245 251 255 259 264 263 258 255 252 248 246 246 248 251 254 256 260 264 267 269 271 273 274 276 278
236 234 234 235 234 231 228 227 228 229 228 229 232 235 239 242 243 246 250 254 258 263 264 260 255 252 250 249 251 253 253 255 258 263 267 269 269 271 273 275 277 278
237 236 235 236 236 236 233 231 232 233 230 229 231 234 237 242 246 248 250 252 256 260 262 260 257 254 252 252 255 259 260 261 263 266 268 270 271 273 274 276 278 279
236 236 237 238 239 239 237 233 234 236 234 230 231 233 236 240 244 247 249 251 254 256 258 259 258 256 255 256 258 262 265 267 268 269 269 270 272 274 275 277 280 281
236 237 239 241 243 242 240 237 237 238 237 233 232 233 235 237 241 244 247 249 251 254 256 257 257 257 257 258 258 261 266 268 270 271 270 271 272 274 276 278 280 282
236 237 240 243 245 243 241 240 240 240 240 237 235 236 236 237 238 241 245 248 250 252 254 254 256 258 259 260 259 260 263 267 270 271 272 273 273 274 276 278 280 282
236 238 241 245 245 243 241 241 242 242 242 241 240 239 239 239 239 241 244 247 249 251 252 253 256 259 261 262 261 261 262 265 268 270 272 274 274 275 276 278 280 281
237 239 243 246 246 244 242 242 243 243 243 243 243 243 243 243 243 244 245 247 249 251 252 254 257 259 260 261 262 262 262 264 266 268 270 272 273 274 275 276 278 279
239 240 243 246 246 246 244 243 244 245 245 244 244 244 246 246 247 247 248 249 250 251 252 255 258 259 261 261 262 263 264 264 265 267 269 270 271 273 274 276 277 278
239 243 245 247 248 247 248 248 248 248 248 248 247 247 248 249 250 250 250 251 252 251 252 254 257 259 260 262 263 264 265 265 266 267 267 267 270 273 274 275 275 275
241 247 249 250 249 250 254 255 253 252 252 252 251 253 254 254 254 254 254 254 254 254 255 256 259 262 263 264 266 267 267 267 267 267 267 268 272 275 275 274 274 274
246 249 248 247 246 249 254 257 257 258 258 257 256 256 258 259 259 258 258 258 258 259 260 260 263 266 268 268 269 269 267 265 264 266 270 274 277 277 276 276 275 274
249 248 248 248 247 249 251 253 254 256 258 259 260 260 260 260 260 260 260 261 261 262 262 263 265 267 270 270 270 268 266 265 266 271 275 277 278 277 277 276 275 273